AirNav   Air Wisconsin pilot careers
 
 1706 users online  

T80 Bishop's Landing Airport
Celina, Texas, USA

GOING TO CELINA?


FAA INFORMATION EFFECTIVE 11 OCTOBER 2018

Location

FAA Identifier: T80
Lat/Long: 33-22-35.4750N / 096-43-44.1700W
33-22.591250N / 096-43.736167W
33.3765208 / -96.7289361
(estimated)
Elevation: 750 ft. / 229 m (estimated)
Variation: 06E (1995)
From city: 5 miles NE of CELINA, TX
Time zone: UTC -5 (UTC -6 during Standard Time)
Zip code: 75009

Airport Operations

Airport use: Open to the public
Activation date: 08/2000
Control tower: no
ARTCC: FORT WORTH CENTER
FSS: FORT WORTH FLIGHT SERVICE STATION
NOTAMs facility: FTW (NOTAM-D service available)
Attendance: UNATNDD
Wind indicator: yes
Segmented circle: no

Airport Communications

CTAF: 122.9
WX ASOS at TKI (14 nm SE): 119.925 (972-548-8525)

Nearby radio navigation aids

VOR radial/distance  VOR name  Freq  Var
BYPr243/26.6BONHAM VORTAC114.6006E
CVEr011/30.5COWBOY VOR/DME116.2006E
TTTr021/34.2MAVERICK VOR/DME113.1006E
FUZr032/37.0RANGER VORTAC115.7006E
URHr201/38.0TEXOMA VOR/DME114.3005E

 
NDB name  Hdg/Dist  Freq  Var  ID
MELISA311/9.842103EVLY ...- .-.. -.--
DENISON180/27.234106EDNI -.. -. ..
CADDO MILLS304/31.531606EMII -- .. ..
MESQUITE341/35.524803EPQF .--. --.- ..-.

Airport Services

Runway Information

Runway 17/35

Dimensions: 1580 x 80 ft. / 482 x 24 m
Surface: turf, in good condition
RY SOFT AFT RAIN. CALL AMGR FOR FLD CONDS.
RUNWAY 17  RUNWAY 35
Latitude: 33-22.721500N33-22.461000N
Longitude: 096-43.735667W096-43.736667W
Elevation: 749.0 ft.733.0 ft.
Traffic pattern: leftright
Runway heading: 174 magnetic, 180 true354 magnetic, 360 true
Obstructions: 34 ft. pole, 10 ft. from runway, 67 ft. left and right of centerline70 ft. trees, 60 ft. left of centerline

Airport Ownership and Management from official FAA records

Ownership: Privately-owned
Owner: BOBBY BISHOP
8955 CR 135
CELINA, TX 75009
Phone (214) 280-4408
Manager: BOBBY BISHOP
8955 CR 135
CELINA, TX 75009
Phone (214) 280-4408

Airport Operational Statistics

Aircraft based on the field: 2
Single engine airplanes: 2
    
Aircraft operations: avg 50/month *
67% local general aviation
33% transient general aviation
* for 12-month period ending 15 February 2015

Additional Remarks

FOR CD CTC REGIONAL APCH AT 972-615-2799.

Instrument Procedures

There are no published instrument procedures at T80.

Some nearby airports with instrument procedures:

KTKI - McKinney National Airport (14 nm SE)
KSWI - Sherman Municipal Airport (16 nm NE)
KGYI - North Texas Regional Airport/Perrin Field (20 nm N)
KADS - Addison Airport (25 nm S)
KDTO - Denton Enterprise Airport (26 nm SW)
 
Loc | Ops | Rwys | IFR | FBO | Links
Com | Nav | Svcs | Stats | Notes


 
Area around T80 (Bishop's Landing Airport)
 
Road maps at: MapQuest Bing Google
 
Aerial photo
No photo
 
Sectional chart

 
Airport distance calculator
Flying to Bishop's Landing Airport? Find the distance to fly.

From to T80

Sunrise and sunset
Times for 16-Oct-2018
 Local
(UTC-5)
 Zulu
(UTC)
Morning civil twilight07:0812:08
Sunrise07:3312:33
Sunset18:5223:52
Evening civil twilight19:1700:17

Current date and time
Zulu (UTC)  16-Oct-2018 18:16:08
Local (UTC-5)  16-Oct-2018 13:16:08
 
METAR
KTKI 
14nm SE 
161753Z 35010KT 10SM -RA OVC009 09/08 A3027 RMK AO2 SLP260 P0000 60050 T00890078 10089 20072 55009
KGYI 
20nm N 
161755Z AUTO 02008KT 10SM OVC035 10/06 A3028 RMK AO2 60001 T01040057 10104 20067 TSNO
KADS 
25nm S 
161754Z 35010G15KT 10SM -RA OVC008 08/07 A3027
KDTO 
26nm SW 
161753Z 01011KT 10SM OVC028 08/05 A3027 RMK AO2 RAB10E53 PRESFR SLP249 P0000 60016 T00830050 10083 20061 58015
TAF
KDFW 
32nm SW 
161732Z 1618/1724 36012KT 6SM -RA BR OVC025 TEMPO 1618/1619 BKN012 OVC020 FM170700 36008KT P6SM -RA SCT025 BKN035 FM171100 36010KT 6SM -RA BR BKN021 BKN040
KDAL 
32nm S 
161732Z 1618/1718 36011KT 6SM -RA BR OVC009 FM162000 36011KT 6SM -RA BR OVC025 FM170700 36008KT P6SM -RA SCT025 BKN035 FM171100 36008KT 6SM -RA BR BKN021 BKN040
KAFW 
38nm SW 
161732Z 1618/1718 36012KT 6SM -RA BR OVC025 FM170700 36007KT P6SM -RA SCT025 BKN035 FM171100 36009KT 6SM -RA BR BKN021 BKN040
NOTAMs
Click for the latest NOTAMs
NOTAMs are issued by the DoD/FAA and will open in a separate window not controlled by AirNav.

 

 
 

Would you like to see your business listed on this page?

 If your business provides an interesting product or service to pilots, flight crews, aircraft, or users of the Bishop's Landing Airport, you should consider listing it here.  To start the listing process, click on the button below
 
Add a business
 

Other Pages about Bishop's Landing Airport

Update a link
 
Copyright © AirNav, LLC. All rights reserved. Privacy Policy  Contact